User: anonymous
Location: South Range
(44.4886°N, 65.7879°W)
Time: 05:24:29
(UTC-03:00)
Language:

Iridium 56 - Orbit

View from above orbital plane
View from above orbital plane
View from above satellite
View from above satellite

Ground track
Ground track

The orbit data is extracted from the following two-line orbital elements,

1 25170U 98010B   14114.50202111  .00000295  00000-0  98144-4 0  6900
2 25170 086.3940 111.0314 0002251 101.9893 010.4178 14.34219614846979
Epoch (UTC): 24 April 2014 12:02:54
Eccentricity: 0.0002251
inclination: 86.3940°
perigee height: 776 km
apogee height: 779 km
right ascension of ascending node: 111.0314°
argument of perigee: 101.9893°
revolutions per day: 14.34219614
mean anomaly at epoch: 10.4178°
orbit number at epoch: 84697

The dashed part of the orbit path shows where the satellite is in the earth's shadow,  

DLR